Regional Weather Roundup
Issued by NWS

Home | Current Version | Previous Version | Text Only | Print | Product List | Glossary Off
Versions: 1 2 3 4 5 6 7 8 9 10 11 12 13 14 15 16 17 18 19 20 21 22 23 24 25 26 27 28 29 30 31 32 33 34 35 36 37 38 39 40 41 42 43 44 45 46 47 48 49 50

000
ASUS43 KLSX 271907
RWRMO

WEATHER SUMMARY FOR MISSOURI
NATIONAL WEATHER SERVICE SPRINGFIELD MO
200 PM CDT MON JUL 27 2015

NOTE: "FAIR" INDICATES FEW OR NO CLOUDS BELOW 12,000 FEET WITH NO
       SIGNIFICANT WEATHER AND/OR OBSTRUCTIONS TO VISIBILITY.
       CURRENT SKY AND/OR WEATHER CONDITIONS ARE NOT AVAILABLE FOR
       CHILLICOTHE AND FARMINGTON.

MOZ001>031-035>038-043-044-053-054-272000-
...NORTHERN AND WESTERN MISSOURI...

CITY           SKY/WX    TMP DP  RH WIND       PRES   REMARKS
KANSAS CTY INT CLOUDY    85  76  74 S6        29.92F HX  94
KANSAS C DTWN  CLOUDY    89  75  63 S6        29.91F HX  99
LEE`S SUMMIT   PTSUNNY   88  72  58 SW7       29.94F HX  94
ST JOSEPH      CLOUDY    85  78  80 S7        29.91S HX  96
CHILLICOTHE      N/A     92  78  63 S9        29.92F HX 107
KIRKSVILLE     PTSUNNY   89  78  70 SE9       29.95F HX 103

$$
MOZ066>068-077>081-088>096-101>105-272000-
...SOUTHWEST MISSOURI...

CITY           SKY/WX    TMP DP  RH WIND       PRES   REMARKS
SPRINGFIELD    SUNNY     93  72  50 SW6       29.96F HX 101
JOPLIN         MOSUNNY   95  74  50 SW9       29.94F HX 105

$$
MOZ032>034-039>042-045>050-055>058-069>072-272000-
...CENTRAL MISSOURI...

CITY           SKY/WX    TMP DP  RH WIND       PRES   REMARKS
COLUMBIA       MOSUNNY   91  77  63 SW6       29.94F HX 104
JEFFERSON CITY PTSUNNY   91  73  55 SW3       29.92F HX  99
ROLLA          MOSUNNY   91  74  57 S3        29.95F HX 100
SEDALIA        MOSUNNY   93  74  53 S8        29.95F HX 103
WHITEMAN AFB   MOSUNNY   94  74  52 SW6       29.92F HX 103
WARRENSBURG    MOSUNNY   90  73  58 S6        29.93S HX  98
OSAGE BEACH    MOSUNNY   93  73  52 CALM      29.95S HX 102

$$
MOZ051-052-059>065-272000-
...EAST CENTRAL MISSOURI...

CITY           SKY/WX    TMP DP  RH WIND       PRES   REMARKS
ST LOUIS INTL  PTSUNNY   95  76  53 CALM      29.93F HX 108
SPIRIT OF STL  MOSUNNY   94  79  61 W5        29.91F HX 111
ST CHARLES     PTSUNNY   90  79  70 E6        29.92S HX 106

$$
MOZ072>076-082>087-097>100-106>115-272000-
...SOUTH CENTRAL AND SOUTHEAST MISSOURI...

CITY           SKY/WX    TMP DP  RH WIND       PRES   REMARKS
CAPE GIRARDEAU MOSUNNY   90  80  72 S5        29.93F HX 107
FARMINGTON     MOSUNNY   91  75  59 CALM      29.98F HX 102
POPLAR BLUFF   MOSUNNY   91  79  67 S6        29.92F HX 107
WEST PLAINS    PTSUNNY   93  75  55 VRB3      29.99F HX 104

$$


USA.gov is the U.S. government's official web portal to all federal, state and local government web resources and services.